Weather Roundup
Issued by NWS Chicago, IL

Home | Current Version | Previous Version | Text Only | Print | Product List | Glossary On
Versions: 1 2 3 4 5 6 7 8 9 10 11 12 13 14 15 16 17 18 19 20 21 22 23 24 25 26 27 28 29 30 31 32 33 34 35 36 37 38 39 40 41 42 43 44 45 46 47 48 49 50
000
NZUS59 KLOT 301510
HRRLOT

CHICAGO AREA WEATHER ROUNDUP
NATIONAL WEATHER SERVICE CHICAGO/ROMEOVILLE IL
1000 AM CDT THU OCT 30 2014

NOTE: "FAIR" INDICATES FEW OR NO CLOUDS BELOW 12,000 FEET WITH NO
SIGNIFICANT WEATHER AND/OR OBSTRUCTIONS TO VISIBILITY.

* THESE STATIONS ARE NOT UNDER NWS QUALITY CONTROL. THEY ALSO MAY NOT
  REPORT WEATHER SUCH AS PRECIPITATION OR FOG.

ILZ005-006-012>014-019>023-301600-
NORTHEAST ILLINOIS

CITY           SKY/WX    TMP DP  RH WIND       PRES   REMARKS
OHARE          PTSUNNY   42  34  73 SW7       30.13F
MIDWAY         PTSUNNY   44  35  70 SW7       30.14F
AURORA         PTSUNNY   42  35  76 S7        30.13F
LANSING*       PTSUNNY   43  36  76 SW3       30.15F
JOLIET*        PTSUNNY   41  37  86 S3        30.14F
WAUKEGAN       PTSUNNY   43  34  70 S7        30.12F
DUPAGE AIRPORT PTSUNNY   44  36  73 S6        30.12F
WHEELING       PTSUNNY   44  34  67 S7        30.15F
MORRIS*        PTSUNNY   40  37  89 SE3       30.13F
LEWIS AIRPORT* PTSUNNY   41  39  91 S5        30.13F
NORTHERLY IS     N/A     44  33  65 SW7         N/A
$$

WIZ051-052-058>065-066-070>072-301600-
SOUTHEAST WISCONSIN

CITY           SKY/WX    TMP DP  RH WIND       PRES   REMARKS
MILWAUKEE      PTSUNNY   42  34  73 SW7       30.11F
KENOSHA*       CLOUDY    42  36  79 SW6       30.12F
RACINE*        CLOUDY    43  35  73 SW6       30.13F
BURLINGTON     PTSUNNY   40  35  85 SW3       30.11F
WAUKESHA       MOSUNNY   37  34  87 CALM      30.12S
WEST BEND      PTSUNNY   41  34  75 SW8       30.09S
$$

INZ001>003-010>013-019-020-301600-
NORTHWEST INDIANA

CITY           SKY/WX    TMP DP  RH WIND       PRES   REMARKS
GARY*          CLOUDY    45  34  65 SW7       30.15F
MICHIGAN CITY* NOT AVBL
RENSSELAER*    NOT AVBL
VALPARAISO     MOSUNNY   45  34  65 SW8       30.15F
$$

LMZ740>746-301600-
SOUTHERN LAKE MICHIGAN

STATION/POSITION TIME  SKY/WX   TEMP WIND        PRES    VSBY
                                AIR  DIR/SP/G
                 (UTC)          (F)  (DEG/KT/KT) (MB)    (MI)
HARRISON CRIB    1400            44  200/ 10/ 12   N/A
BURNHAM HARBOR   1500            44  180/  6/  8   N/A
CALUMET HARBOR   1500            44  200/  5/  6 1019.5F
BURNS HARBOR     NOT AVBL
MICHIGAN CITY    1500            46  190/ 11/ 13   N/A
$$

ABBREVIATIONS USED IN REMARKS
   TC - TEMPERATURE IN CELSIUS
  WCI - WIND CHILL INDEX
   HX - HEAT INDEX
  VSB - VISIBILITY
$$



USA.gov is the U.S. government's official web portal to all federal, state and local government web resources and services.